Regional Weather Roundup
Issued by NWS

Home | Current Version | Previous Version | Graphics & Text | Print | Product List | Glossary On
Versions: 1 2 3 4 5 6 7 8 9 10 11 12 13 14 15 16 17 18 19 20 21 22 23 24 25 26 27 28 29 30 31 32 33 34 35 36 37 38 39 40 41 42 43 44 45 46 47 48 49 50
569
ASUS43 KOAX 281902
RWRNE

WEATHER ROUNDUP FOR NEBRASKA
NATIONAL WEATHER SERVICE OMAHA NE
200 PM CDT SUN AUG 28 2016

NOTES: SATELLITE DATA IS BEING USED TO AUGMENT CLOUD COVER ABOVE
       12000 FEET.
       "FAIR" INDICATES FEW OR NO CLOUDS BELOW 12,000 FEET WITH NO
       SIGNIFICANT WEATHER AND/OR OBSTRUCTIONS TO VISIBILITY.

  * THESE STATIONS DO NOT REPORT WEATHER SUCH AS RAIN...SNOW OR FOG.

NEZ001>004-019>022-054>056-282000-
NEBRASKA PANHANDLE

CITY           SKY/WX    TMP DP  RH WIND       PRES   REMARKS
SCOTTSBLUFF    SUNNY     87  42  20 MISG      30.08F
ALLIANCE       SUNNY     88  49  25 S12       30.07F
CHADRON        SUNNY     90  39  16 SE3       30.00F
KIMBALL        SUNNY     83  50  31 E7        30.15F
SIDNEY         CLOUDY    86  52  30 SE6       30.12F
$$

NEZ057>060-069>072-079>082-282000-
SOUTHWEST NEBRASKA

CITY           SKY/WX    TMP DP  RH WIND       PRES   REMARKS
NORTH PLATTE   SUNNY     91  52  26 S12       30.06F
IMPERIAL       SUNNY     86  56  35 S12G20    30.09F
LEXINGTON      MOSUNNY   84  63  50 SE10      30.09S
MCCOOK         CLOUDY    77  58  51 SE12      30.10S
OGALLALA       SUNNY     88  50  26 S8        30.07F
$$

NEZ005>010-023>029-035>040-094-282000-
NORTH CENTRAL NEBRASKA

CITY           SKY/WX    TMP DP  RH WIND       PRES   REMARKS
AINSWORTH      SUNNY     90  63  41 S17       30.03S HX  90
BROKEN BOW     SUNNY     87  62  43 S13G25    30.07F
O`NEILL        SUNNY     92  57  30 S14G28    30.04F HX  91
ORD            MOSUNNY   87  63  44 S13G21    30.05F
THEDFORD       MOSUNNY   88  58  35 S14G24    30.06F
$$

NEZ041-046>049-061>064-073>077-083>087-282000-
SOUTH CENTRAL NEBRASKA

CITY           SKY/WX    TMP DP  RH WIND       PRES   REMARKS
GRAND ISLAND   MOSUNNY   89  62  40 SE10      30.08F
AURORA         MOSUNNY   87  66  49 S9        30.08F
HASTINGS       MOSUNNY   86  62  44 S10       30.09F
HEBRON         SUNNY     87  69  55 S10       30.08F HX  90
HOLDREGE       CLOUDY    81  63  53 S9        30.09F
KEARNEY *      CLOUDY    82  66  57 SE10      30.08F
YORK           MOSUNNY   86  70  58 S9        30.09F HX  90
$$

NEZ011>018-030>034-042>045-282000-
NORTHEAST NEBRASKA

CITY           SKY/WX    TMP DP  RH WIND       PRES   REMARKS
NORFOLK        SUNNY     86  69  56 S12       30.07F HX  90
ALBION         SUNNY     84  68  57 S10       30.08S
BLAIR          MOSUNNY   87  74  65 SE9       30.10F HX  94
FREMONT        PTSUNNY   85  72  63 SE9       30.09F HX  91
TEKAMAH        PTSUNNY   86  73  65 S9        30.08F HX  93
WAYNE          MOSUNNY   84  75  73 S12       30.09S HX  92
$$

NEZ050>053-065>068-078-088>093-282000-
SOUTHEAST NEBRASKA

CITY           SKY/WX    TMP DP  RH WIND       PRES   REMARKS
LINCOLN        MOSUNNY   92  68  45 S13G20    30.08F HX  96
OMAHA EPPLEY   PTSUNNY   88  72  58 SE14      30.08F HX  94
BEATRICE       SUNNY     87  70  56 S10G18    30.08F HX  92
FALLS CITY     MOSUNNY   89  71  55 SE6       30.08F HX  95
NEBRASKA CITY  PTSUNNY   86  71  60 SE7       30.08F HX  91
PLATTSMOUTH    SUNNY     88  73  60 SE8       30.09F HX  96
$$

NEZ044-045-051>053-067-282000-
OMAHA AREA

CITY           SKY/WX    TMP DP  RH WIND       PRES   REMARKS
OMAHA EPPLEY   PTSUNNY   88  72  58 SE14      30.08F HX  94
BLAIR          MOSUNNY   87  74  65 SE9       30.10F HX  94
FREMONT        PTSUNNY   85  72  63 SE9       30.09F HX  91
MILLARD        MOSUNNY   89  74  61 SE7       30.08F HX  97
OFFUTT AFB     SUNNY     88  75  64 E8        30.07F HX  98
PLATTSMOUTH    SUNNY     88  73  60 SE8       30.09F HX  96
WAHOO          FAIR      86  73  63 S7        30.09S HX  93
$$




USA.gov is the U.S. government's official web portal to all federal, state and local government web resources and services.